Language: 


Des rapports , des résumés tant et plus, au choix de chacun....


Données statistiques de la station
Quotidien Rapport Juin 21, 2017 Unités:  Métrique    Anglais   les deux
« Précédent Jour
Suivant Jour »
Quotidien Hebdomadaire Mensuel Annuel Actuel
  Haut: Bas: Moyen:
Température: 37.3 °C 18.2 °C 27.8 °C
Pt de rosée: 21.0 °C 14.0 °C 17.6 °C
Humidité: 92 % 27 % 58 %
Vitesse du vent: 13.0 km/h 0.0 km/h 2.6 km/h
Rafales: 15.4 km/h - -
Vent:- - ESE
Pression: 1016.8 hPa 1012.1 hPa -
Précipitation: 0.0 mm    
Historical Graphs
 
 
Données statistiques pour Juin 21, 2017
Heure Température Point de rosée Pression Vent Vitesse du vent Refales Humidité Pluie (taux horaire)
00:01 22.8 °C 17.0 °C 1016.8 hPa NE 5.5 km/h 13.0 km/h 70 % 0.0 mm
00:06 22.6 °C 18.0 °C 1016.8 hPa Calm   9.7 km/h 74 % 0.0 mm
00:11 22.4 °C 18.0 °C 1016.8 hPa Calm   8.7 km/h 74 % 0.0 mm
00:16 22.4 °C 18.0 °C 1016.8 hPa NE 5.8 km/h 6.1 km/h 74 % 0.0 mm
00:21 22.1 °C 18.0 °C 1016.8 hPa NE 6.4 km/h 7.6 km/h 76 % 0.0 mm
00:26 22.1 °C 18.0 °C 1016.8 hPa NE 2.1 km/h 7.6 km/h 75 % 0.0 mm
00:31 22.0 °C 18.0 °C 1016.8 hPa NE 7.9 km/h 7.9 km/h 77 % 0.0 mm
00:36 21.9 °C 18.0 °C 1016.8 hPa NE 6.9 km/h 9.3 km/h 78 % 0.0 mm
00:41 21.9 °C 18.0 °C 1016.8 hPa NNE 5.8 km/h 10.1 km/h 79 % 0.0 mm
00:46 21.8 °C 18.0 °C 1016.8 hPa Calm   10.1 km/h 79 % 0.0 mm
00:51 21.7 °C 18.0 °C 1016.8 hPa ENE 9.0 km/h 9.0 km/h 80 % 0.0 mm
00:56 21.7 °C 18.0 °C 1016.8 hPa NE 7.6 km/h 9.0 km/h 80 % 0.0 mm
01:01 21.6 °C 18.0 °C 1016.8 hPa Calm   8.7 km/h 80 % 0.0 mm
01:07 21.4 °C 18.0 °C 1016.8 hPa Calm   6.1 km/h 80 % 0.0 mm
01:12 21.2 °C 18.0 °C 1016.8 hPa Calm   9.0 km/h 81 % 0.0 mm
01:17 21.1 °C 18.0 °C 1016.8 hPa Calm   9.0 km/h 81 % 0.0 mm
01:22 21.0 °C 18.0 °C 1016.8 hPa Calm   6.9 km/h 81 % 0.0 mm
01:27 20.9 °C 18.0 °C 1016.8 hPa Calm   4.7 km/h 82 % 0.0 mm
01:32 20.7 °C 18.0 °C 1016.8 hPa NE 2.1 km/h 5.0 km/h 83 % 0.0 mm
01:37 20.6 °C 18.0 °C 1016.8 hPa Calm   5.0 km/h 83 % 0.0 mm
01:42 20.4 °C 17.0 °C 1016.8 hPa Calm   5.0 km/h 83 % 0.0 mm
01:47 20.3 °C 18.0 °C 1016.8 hPa Calm   7.9 km/h 84 % 0.0 mm
01:52 20.3 °C 18.0 °C 1016.8 hPa Calm   7.9 km/h 85 % 0.0 mm
01:57 20.2 °C 18.0 °C 1016.8 hPa Calm   6.1 km/h 85 % 0.0 mm
02:02 20.1 °C 18.0 °C 1016.8 hPa Calm   5.5 km/h 85 % 0.0 mm
02:07 20.1 °C 18.0 °C 1016.8 hPa Calm     85 % 0.0 mm
02:12 19.9 °C 18.0 °C 1016.8 hPa Calm     86 % 0.0 mm
02:17 19.7 °C 17.0 °C 1016.8 hPa Calm     86 % 0.0 mm
02:22 19.6 °C 18.0 °C 1016.8 hPa Calm     87 % 0.0 mm
02:28 19.6 °C 18.0 °C 1016.8 hPa Calm     87 % 0.0 mm
02:33 19.5 °C 18.0 °C 1016.8 hPa Calm     87 % 0.0 mm
02:38 19.5 °C 18.0 °C 1016.8 hPa Calm     87 % 0.0 mm
02:43 19.4 °C 17.0 °C 1016.8 hPa Calm   4.3 km/h 88 % 0.0 mm
02:48 19.4 °C 17.0 °C 1016.8 hPa Calm   4.3 km/h 88 % 0.0 mm
02:53 19.3 °C 17.0 °C 1016.8 hPa Calm     88 % 0.0 mm
02:58 19.3 °C 18.0 °C 1016.8 hPa Calm   4.3 km/h 89 % 0.0 mm
03:03 19.2 °C 18.0 °C 1016.8 hPa NE 2.1 km/h 5.0 km/h 89 % 0.0 mm
03:08 19.1 °C 17.0 °C 1016.8 hPa Calm   5.0 km/h 89 % 0.0 mm
03:13 19.1 °C 17.0 °C 1016.8 hPa Calm     89 % 0.0 mm
03:18 19.1 °C 17.0 °C 1016.8 hPa Calm     89 % 0.0 mm
03:23 19.0 °C 17.0 °C 1016.8 hPa Calm   5.5 km/h 89 % 0.0 mm
03:28 19.0 °C 17.0 °C 1016.8 hPa North 4.7 km/h 5.5 km/h 89 % 0.0 mm
03:33 19.0 °C 17.0 °C 1016.8 hPa Calm   5.5 km/h 90 % 0.0 mm
03:38 19.0 °C 17.0 °C 1016.8 hPa Calm   4.7 km/h 90 % 0.0 mm
03:39 19.0 °C 17.0 °C 1016.8 hPa Calm   4.7 km/h 90 % 0.0 mm
03:44 19.0 °C 17.0 °C 1016.8 hPa Calm   4.7 km/h 90 % 0.0 mm
03:49 18.9 °C 17.0 °C 1016.8 hPa Calm     90 % 0.0 mm
03:54 18.9 °C 17.0 °C 1016.8 hPa Calm   4.3 km/h 90 % 0.0 mm
03:59 18.9 °C 18.0 °C 1016.8 hPa NNE 2.6 km/h 4.3 km/h 91 % 0.0 mm
04:04 18.8 °C 17.0 °C 1016.1 hPa Calm   4.0 km/h 90 % 0.0 mm
04:09 18.8 °C 17.0 °C 1016.1 hPa Calm   5.8 km/h 91 % 0.0 mm
04:14 18.7 °C 17.0 °C 1016.1 hPa Calm   5.8 km/h 91 % 0.0 mm
04:19 18.7 °C 17.0 °C 1016.1 hPa Calm   5.8 km/h 91 % 0.0 mm
04:24 18.6 °C 17.0 °C 1016.1 hPa Calm   4.7 km/h 91 % 0.0 mm
04:29 18.5 °C 17.0 °C 1016.1 hPa Calm   4.7 km/h 91 % 0.0 mm
04:35 18.4 °C 17.0 °C 1015.1 hPa Calm   5.0 km/h 91 % 0.0 mm
04:40 18.3 °C 17.0 °C 1015.1 hPa Calm   5.8 km/h 91 % 0.0 mm
04:45 18.2 °C 17.0 °C 1015.1 hPa Calm   5.8 km/h 91 % 0.0 mm
04:50 18.2 °C 17.0 °C 1015.1 hPa Calm   5.0 km/h 91 % 0.0 mm
04:53 18.3 °C 17.0 °C 1015.1 hPa Calm   7.2 km/h 91 % 0.0 mm
04:58 18.4 °C 17.0 °C 1015.1 hPa NE 4.0 km/h 7.2 km/h 91 % 0.0 mm
05:03 18.4 °C 17.0 °C 1015.1 hPa Calm   7.6 km/h 91 % 0.0 mm
05:08 18.6 °C 17.0 °C 1015.1 hPa NE 5.5 km/h 7.6 km/h 92 % 0.0 mm
05:13 18.7 °C 17.0 °C 1015.1 hPa NE 7.9 km/h 10.5 km/h 92 % 0.0 mm
05:18 18.8 °C 17.0 °C 1016.1 hPa NE 6.9 km/h 10.5 km/h 92 % 0.0 mm
05:23 18.9 °C 18.0 °C 1016.1 hPa East 6.4 km/h 8.7 km/h 91 % 0.0 mm
05:28 19.0 °C 18.0 °C 1016.1 hPa ENE 9.3 km/h 9.3 km/h 91 % 0.0 mm
05:33 19.0 °C 18.0 °C 1016.1 hPa ENE 2.6 km/h 9.3 km/h 91 % 0.0 mm
05:38 19.0 °C 18.0 °C 1016.1 hPa Calm   9.0 km/h 91 % 0.0 mm
05:43 19.1 °C 17.0 °C 1016.1 hPa Calm   8.7 km/h 90 % 0.0 mm
05:49 19.1 °C 17.0 °C 1016.1 hPa Calm   8.7 km/h 90 % 0.0 mm
05:54 19.1 °C 17.0 °C 1016.1 hPa Calm   9.0 km/h 90 % 0.0 mm
05:59 19.1 °C 17.0 °C 1016.1 hPa East 4.7 km/h 9.0 km/h 90 % 0.0 mm
06:04 19.2 °C 18.0 °C 1016.1 hPa Calm   7.9 km/h 90 % 0.0 mm
06:08 19.3 °C 18.0 °C 1016.1 hPa Calm   7.9 km/h 90 % 0.0 mm
06:14 19.3 °C 18.0 °C 1016.1 hPa Calm   9.0 km/h 90 % 0.0 mm
06:19 19.4 °C 18.0 °C 1016.8 hPa NE 2.6 km/h 9.0 km/h 89 % 0.0 mm
06:24 19.5 °C 18.0 °C 1016.8 hPa Calm   8.7 km/h 89 % 0.0 mm
06:29 19.6 °C 18.0 °C 1016.8 hPa Calm   9.3 km/h 89 % 0.0 mm
06:34 19.6 °C 18.0 °C 1016.1 hPa NE 2.6 km/h 9.3 km/h 89 % 0.0 mm
06:39 19.7 °C 18.0 °C 1016.1 hPa Calm   10.5 km/h 88 % 0.0 mm
06:44 19.8 °C 18.0 °C 1016.1 hPa NE 6.4 km/h 10.5 km/h 88 % 0.0 mm
06:49 19.9 °C 18.0 °C 1016.1 hPa NE 6.9 km/h 9.7 km/h 88 % 0.0 mm
06:54 20.0 °C 18.0 °C 1016.1 hPa ENE 5.0 km/h 10.1 km/h 87 % 0.0 mm
06:59 20.1 °C 18.0 °C 1016.1 hPa East 5.8 km/h 10.1 km/h 87 % 0.0 mm
07:04 20.2 °C 18.0 °C 1016.1 hPa ENE 7.2 km/h 10.1 km/h 86 % 0.0 mm
07:09 20.4 °C 18.0 °C 1016.1 hPa NNE 7.6 km/h 10.1 km/h 86 % 0.0 mm
07:14 20.6 °C 18.0 °C 1016.1 hPa ENE 7.9 km/h 9.7 km/h 85 % 0.0 mm
07:19 20.8 °C 18.0 °C 1016.1 hPa Calm   9.7 km/h 84 % 0.0 mm
07:24 20.9 °C 18.0 °C 1016.1 hPa ENE 5.0 km/h 10.1 km/h 84 % 0.0 mm
07:30 21.0 °C 18.0 °C 1016.1 hPa East 5.0 km/h 11.6 km/h 82 % 0.0 mm
07:34 21.2 °C 18.0 °C 1016.1 hPa East 4.7 km/h 11.6 km/h 82 % 0.0 mm
07:40 21.3 °C 18.0 °C 1016.1 hPa NE 6.9 km/h 10.8 km/h 81 % 0.0 mm
07:45 21.6 °C 18.0 °C 1016.1 hPa NE 6.1 km/h 11.1 km/h 81 % 0.0 mm
07:50 21.7 °C 18.0 °C 1016.1 hPa NE 5.0 km/h 11.1 km/h 80 % 0.0 mm
07:55 21.8 °C 18.0 °C 1016.1 hPa Calm   10.5 km/h 80 % 0.0 mm
08:00 22.1 °C 18.0 °C 1016.1 hPa East 4.3 km/h 9.3 km/h 79 % 0.0 mm
08:05 22.3 °C 19.0 °C 1015.1 hPa NE 6.1 km/h 9.3 km/h 79 % 0.0 mm
08:10 22.4 °C 18.0 °C 1015.1 hPa East 5.0 km/h 9.3 km/h 78 % 0.0 mm
08:15 22.9 °C 19.0 °C 1015.1 hPa East 4.3 km/h 8.7 km/h 78 % 0.0 mm
08:20 23.3 °C 19.0 °C 1015.1 hPa Calm   7.9 km/h 77 % 0.0 mm
08:25 23.6 °C 19.0 °C 1015.1 hPa ESE 7.2 km/h 7.9 km/h 76 % 0.0 mm
08:30 23.8 °C 19.0 °C 1015.1 hPa East 7.6 km/h 10.5 km/h 75 % 0.0 mm
08:32 23.7 °C 19.0 °C 1015.1 hPa ESE 4.7 km/h 10.5 km/h 74 % 0.0 mm
08:37 23.8 °C 19.0 °C 1015.1 hPa East 6.4 km/h 9.7 km/h 73 % 0.0 mm
08:42 23.9 °C 19.0 °C 1015.1 hPa ESE 5.8 km/h 12.2 km/h 72 % 0.0 mm
08:47 24.0 °C 19.0 °C 1016.1 hPa ENE 10.5 km/h 12.2 km/h 71 % 0.0 mm
08:52 24.0 °C 19.0 °C 1016.1 hPa ESE 9.7 km/h 11.6 km/h 71 % 0.0 mm
08:57 24.4 °C 19.0 °C 1016.1 hPa East 5.8 km/h 10.5 km/h 71 % 0.0 mm
09:02 24.7 °C 19.0 °C 1016.1 hPa ENE 4.3 km/h 10.5 km/h 71 % 0.0 mm
09:07 24.9 °C 19.0 °C 1016.1 hPa Calm   10.1 km/h 69 % 0.0 mm
09:12 25.2 °C 19.0 °C 1016.1 hPa SE 1.4 km/h 9.7 km/h 69 % 0.0 mm
09:17 25.4 °C 19.0 °C 1016.1 hPa SE 7.2 km/h 11.9 km/h 68 % 0.0 mm
09:22 25.6 °C 20.0 °C 1016.1 hPa East 4.3 km/h 11.9 km/h 68 % 0.0 mm
09:27 25.9 °C 20.0 °C 1016.1 hPa SE 8.7 km/h 11.9 km/h 68 % 0.0 mm
09:32 26.1 °C 20.0 °C 1016.1 hPa Calm   9.3 km/h 67 % 0.0 mm
09:38 26.3 °C 20.0 °C 1016.1 hPa Calm   9.3 km/h 66 % 0.0 mm
09:43 26.5 °C 20.0 °C 1016.1 hPa ENE 9.3 km/h 9.3 km/h 65 % 0.0 mm
09:48 26.6 °C 20.0 °C 1016.1 hPa SE 2.6 km/h 11.6 km/h 65 % 0.0 mm
09:53 26.8 °C 20.0 °C 1016.1 hPa Calm   11.6 km/h 65 % 0.0 mm
09:58 27.0 °C 20.0 °C 1016.1 hPa ESE 6.9 km/h 8.7 km/h 64 % 0.0 mm
10:03 27.1 °C 20.0 °C 1015.1 hPa Calm   9.7 km/h 63 % 0.0 mm
10:08 27.2 °C 20.0 °C 1015.1 hPa Calm   9.7 km/h 63 % 0.0 mm
10:13 27.6 °C 20.0 °C 1015.1 hPa Calm   11.1 km/h 63 % 0.0 mm
10:18 27.7 °C 20.0 °C 1016.1 hPa East 9.0 km/h 11.1 km/h 61 % 0.0 mm
10:23 28.0 °C 20.0 °C 1016.1 hPa SE 6.9 km/h 10.5 km/h 62 % 0.0 mm
10:28 28.2 °C 21.0 °C 1016.1 hPa ESE 9.0 km/h 10.5 km/h 62 % 0.0 mm
10:33 28.3 °C 20.0 °C 1016.1 hPa NE 10.5 km/h 10.5 km/h 59 % 0.0 mm
10:38 28.3 °C 20.0 °C 1016.1 hPa ENE 5.5 km/h 10.5 km/h 60 % 0.0 mm
10:43 28.5 °C 21.0 °C 1016.1 hPa Calm   10.1 km/h 60 % 0.0 mm
10:48 28.7 °C 20.0 °C 1016.1 hPa ESE 8.7 km/h 9.0 km/h 59 % 0.0 mm
10:53 29.0 °C 21.0 °C 1016.1 hPa Calm   9.0 km/h 59 % 0.0 mm
10:54 29.0 °C 21.0 °C 1016.1 hPa Calm   9.0 km/h 59 % 0.0 mm
10:59 29.3 °C 20.0 °C 1016.1 hPa Calm   7.6 km/h 58 % 0.0 mm
11:04 29.4 °C 20.0 °C 1016.1 hPa ESE 7.9 km/h 11.6 km/h 57 % 0.0 mm
11:09 29.5 °C 20.0 °C 1016.1 hPa ENE 4.0 km/h 11.6 km/h 56 % 0.0 mm
11:14 29.7 °C 20.0 °C 1016.1 hPa Calm   9.3 km/h 56 % 0.0 mm
11:19 30.1 °C 20.0 °C 1016.1 hPa East 5.5 km/h 10.5 km/h 55 % 0.0 mm
11:24 30.3 °C 20.0 °C 1016.1 hPa East 5.8 km/h 10.5 km/h 54 % 0.0 mm
11:29 30.4 °C 20.0 °C 1016.1 hPa Calm   8.7 km/h 54 % 0.0 mm
11:34 30.6 °C 20.0 °C 1015.1 hPa ESE 3.2 km/h 9.7 km/h 52 % 0.0 mm
11:39 31.0 °C 20.0 °C 1015.1 hPa Calm   9.7 km/h 52 % 0.0 mm
11:44 31.0 °C 20.0 °C 1015.1 hPa East 5.5 km/h 9.3 km/h 50 % 0.0 mm
11:49 31.1 °C 20.0 °C 1015.1 hPa East 9.7 km/h 11.9 km/h 50 % 0.0 mm
11:54 31.4 °C 20.0 °C 1015.1 hPa East 6.1 km/h 11.9 km/h 50 % 0.0 mm
11:59 31.5 °C 20.0 °C 1015.1 hPa Calm   10.1 km/h 49 % 0.0 mm
12:04 31.6 °C 20.0 °C 1015.1 hPa East 6.9 km/h 10.1 km/h 48 % 0.0 mm
12:09 31.9 °C 20.0 °C 1015.1 hPa ENE 4.7 km/h 10.5 km/h 49 % 0.0 mm
12:14 32.1 °C 20.0 °C 1015.1 hPa ENE 6.9 km/h 10.5 km/h 47 % 0.0 mm
12:19 32.3 °C 20.0 °C 1014.1 hPa Calm   11.1 km/h 47 % 0.0 mm
12:24 32.4 °C 20.0 °C 1014.1 hPa ENE 7.9 km/h 11.1 km/h 46 % 0.0 mm
12:29 32.4 °C 20.0 °C 1014.1 hPa ESE 5.5 km/h 13.0 km/h 46 % 0.0 mm
12:34 32.6 °C 20.0 °C 1014.1 hPa ESE 7.2 km/h 13.0 km/h 46 % 0.0 mm
12:39 32.9 °C 20.0 °C 1014.1 hPa East 9.3 km/h 12.6 km/h 45 % 0.0 mm
12:44 33.0 °C 20.0 °C 1014.1 hPa ENE 1.4 km/h 12.6 km/h 44 % 0.0 mm
12:49 33.2 °C 19.0 °C 1014.1 hPa Calm   8.7 km/h 43 % 0.0 mm
12:54 33.5 °C 20.0 °C 1014.1 hPa Calm   8.7 km/h 44 % 0.0 mm
12:59 33.5 °C 19.0 °C 1014.1 hPa ESE 4.7 km/h 9.7 km/h 41 % 0.0 mm
13:04 33.7 °C 19.0 °C 1015.1 hPa Calm   12.2 km/h 41 % 0.0 mm
13:09 33.8 °C 18.0 °C 1015.1 hPa SE 11.9 km/h 13.0 km/h 39 % 0.0 mm
13:14 34.1 °C 19.0 °C 1015.1 hPa ESE 10.5 km/h 14.3 km/h 40 % 0.0 mm
13:19 34.3 °C 19.0 °C 1014.1 hPa East 5.0 km/h 14.3 km/h 39 % 0.0 mm
13:25 34.6 °C 19.0 °C 1014.1 hPa Calm   14.3 km/h 39 % 0.0 mm
13:30 34.9 °C 19.0 °C 1014.1 hPa Calm   11.9 km/h 39 % 0.0 mm
13:35 35.0 °C 18.0 °C 1014.1 hPa ENE 11.9 km/h 12.2 km/h 37 % 0.0 mm
13:40 34.7 °C 18.0 °C 1014.1 hPa ENE 7.9 km/h 12.2 km/h 36 % 0.0 mm
13:45 34.8 °C 18.0 °C 1014.1 hPa Calm   10.5 km/h 37 % 0.0 mm
13:50 34.9 °C 18.0 °C 1015.1 hPa East 10.1 km/h 14.0 km/h 36 % 0.0 mm
13:55 35.0 °C 17.0 °C 1015.1 hPa Calm   14.0 km/h 35 % 0.0 mm
14:00 35.5 °C 18.0 °C 1015.1 hPa Calm   13.7 km/h 35 % 0.0 mm
14:05 35.6 °C 18.0 °C 1015.1 hPa ENE 8.7 km/h 10.5 km/h 34 % 0.0 mm
14:10 35.4 °C 17.0 °C 1015.1 hPa ENE 8.7 km/h 10.5 km/h 33 % 0.0 mm
14:15 35.6 °C 18.0 °C 1015.1 hPa Calm   10.5 km/h 34 % 0.0 mm
14:20 35.6 °C 18.0 °C 1015.1 hPa SE 10.1 km/h 10.1 km/h 34 % 0.0 mm
14:25 35.6 °C 17.0 °C 1015.1 hPa Calm   13.7 km/h 33 % 0.0 mm
14:30 35.8 °C 18.0 °C 1015.1 hPa NE 4.0 km/h 13.7 km/h 34 % 0.0 mm
14:35 35.7 °C 17.0 °C 1015.1 hPa SE 7.6 km/h 15.4 km/h 33 % 0.0 mm
14:40 35.9 °C 18.0 °C 1015.1 hPa ESE 9.3 km/h 15.4 km/h 33 % 0.0 mm
14:45 36.1 °C 18.0 °C 1015.1 hPa SE 1.8 km/h 10.8 km/h 33 % 0.0 mm
14:50 36.1 °C 18.0 °C 1015.1 hPa SSW 4.0 km/h 9.3 km/h 34 % 0.0 mm
14:56 36.4 °C 18.0 °C 1015.1 hPa SSE 13.0 km/h 13.0 km/h 33 % 0.0 mm
15:01 36.1 °C 17.0 °C 1014.1 hPa SSE 1.4 km/h 13.0 km/h 31 % 0.0 mm
15:06 35.9 °C 17.0 °C 1014.1 hPa SSE 11.9 km/h 13.0 km/h 31 % 0.0 mm
15:11 36.1 °C 17.0 °C 1014.1 hPa SSE 4.0 km/h 11.9 km/h 31 % 0.0 mm
15:16 35.8 °C 16.0 °C 1014.1 hPa East 7.9 km/h 11.9 km/h 30 % 0.0 mm
15:21 35.7 °C 15.0 °C 1014.1 hPa Calm   10.5 km/h 29 % 0.0 mm
15:26 35.5 °C 15.0 °C 1014.1 hPa SSW 10.1 km/h 10.5 km/h 29 % 0.0 mm
15:31 35.2 °C 15.0 °C 1014.1 hPa WSW 9.0 km/h 10.1 km/h 29 % 0.0 mm
15:36 35.1 °C 14.0 °C 1014.1 hPa South 3.5 km/h 10.1 km/h 29 % 0.0 mm
15:41 35.4 °C 15.0 °C 1014.1 hPa East 6.9 km/h 10.1 km/h 30 % 0.0 mm
15:46 35.8 °C 16.0 °C 1014.1 hPa Calm   10.1 km/h 31 % 0.0 mm
15:51 35.8 °C 15.0 °C 1014.1 hPa Calm   13.0 km/h 29 % 0.0 mm
15:56 36.0 °C 15.0 °C 1014.1 hPa SSE 10.1 km/h 13.0 km/h 29 % 0.0 mm
16:01 36.1 °C 15.0 °C 1014.1 hPa Calm   10.5 km/h 29 % 0.0 mm
16:06 36.1 °C 16.0 °C 1014.1 hPa WSW 1.4 km/h 8.7 km/h 30 % 0.0 mm
16:12 35.8 °C 16.0 °C 1014.1 hPa Calm   8.7 km/h 30 % 0.0 mm
16:17 36.1 °C 16.0 °C 1014.1 hPa South 5.8 km/h 8.7 km/h 30 % 0.0 mm
16:22 36.0 °C 15.0 °C 1014.1 hPa Calm   6.4 km/h 28 % 0.0 mm
16:27 36.2 °C 15.0 °C 1014.1 hPa Calm   10.5 km/h 29 % 0.0 mm
16:32 36.3 °C 15.0 °C 1014.1 hPa SW 1.8 km/h 10.5 km/h 29 % 0.0 mm
16:37 36.6 °C 15.0 °C 1014.1 hPa Calm   7.9 km/h 28 % 0.0 mm
16:42 36.7 °C 16.0 °C 1014.1 hPa SW 3.2 km/h 6.9 km/h 29 % 0.0 mm
16:47 37.0 °C 16.0 °C 1014.1 hPa Calm   6.4 km/h 28 % 0.0 mm
16:52 37.0 °C 16.0 °C 1014.1 hPa Calm   5.8 km/h 28 % 0.0 mm
16:53 37.0 °C 16.0 °C 1014.1 hPa Calm   5.8 km/h 28 % 0.0 mm
16:58 36.9 °C 16.0 °C 1014.1 hPa East 5.0 km/h 7.9 km/h 29 % 0.0 mm
17:03 36.8 °C 15.0 °C 1013.1 hPa SE 7.9 km/h 8.7 km/h 28 % 0.0 mm
17:08 36.9 °C 15.0 °C 1013.1 hPa SSE 4.0 km/h 8.7 km/h 28 % 0.0 mm
17:13 37.0 °C 16.0 °C 1013.1 hPa Calm   7.9 km/h 28 % 0.0 mm
17:18 37.2 °C 15.0 °C 1013.1 hPa Calm   6.9 km/h 27 % 0.0 mm
17:23 37.3 °C 15.0 °C 1013.1 hPa Calm   3.2 km/h 27 % 0.0 mm
17:28 37.2 °C 15.0 °C 1013.1 hPa SSE 6.4 km/h 7.6 km/h 27 % 0.0 mm
17:33 37.2 °C 16.0 °C 1013.1 hPa SSE 4.3 km/h 8.7 km/h 28 % 0.0 mm
17:38 36.3 °C 15.0 °C 1013.1 hPa ESE 1.4 km/h 9.0 km/h 29 % 0.0 mm
17:43 36.6 °C 16.0 °C 1013.1 hPa Calm   9.0 km/h 29 % 0.0 mm
17:48 36.7 °C 16.0 °C 1013.1 hPa Calm   3.5 km/h 29 % 0.0 mm
17:53 36.8 °C 16.0 °C 1013.1 hPa ESE 5.8 km/h 6.9 km/h 30 % 0.0 mm
17:58 36.6 °C 16.0 °C 1013.1 hPa SSW 6.4 km/h 6.9 km/h 29 % 0.0 mm
18:03 36.8 °C 16.0 °C 1013.1 hPa Calm   7.9 km/h 30 % 0.0 mm
18:08 37.0 °C 17.0 °C 1013.1 hPa Calm   7.9 km/h 30 % 0.0 mm
18:13 37.0 °C 17.0 °C 1013.1 hPa Calm   7.9 km/h 30 % 0.0 mm
18:18 36.7 °C 16.0 °C 1013.1 hPa Calm   9.0 km/h 30 % 0.0 mm
18:24 36.6 °C 16.0 °C 1013.1 hPa Calm   9.0 km/h 30 % 0.0 mm
18:29 36.7 °C 16.0 °C 1013.1 hPa SSW 1.8 km/h 5.5 km/h 30 % 0.0 mm
18:34 36.9 °C 16.0 °C 1013.1 hPa Calm   1.8 km/h 29 % 0.0 mm
18:39 36.9 °C 16.0 °C 1013.1 hPa Calm   4.0 km/h 29 % 0.0 mm
18:44 36.7 °C 16.0 °C 1013.1 hPa SE 6.4 km/h 7.9 km/h 29 % 0.0 mm
18:49 36.5 °C 16.0 °C 1012.1 hPa Calm   7.9 km/h 29 % 0.0 mm
18:54 36.5 °C 16.0 °C 1012.1 hPa Calm   6.4 km/h 29 % 0.0 mm
18:59 36.1 °C 15.0 °C 1012.1 hPa Calm   6.4 km/h 29 % 0.0 mm
19:04 36.0 °C 15.0 °C 1013.1 hPa SSE 1.8 km/h 6.4 km/h 29 % 0.0 mm
19:09 35.9 °C 15.0 °C 1013.1 hPa Calm   10.1 km/h 29 % 0.0 mm
19:14 35.8 °C 16.0 °C 1013.1 hPa Calm   10.1 km/h 30 % 0.0 mm
19:19 35.8 °C 16.0 °C 1014.1 hPa SE 2.1 km/h 6.9 km/h 30 % 0.0 mm
19:24 35.6 °C 16.0 °C 1014.1 hPa Calm   6.9 km/h 30 % 0.0 mm
19:29 35.5 °C 16.0 °C 1014.1 hPa Calm   9.3 km/h 31 % 0.0 mm
19:34 35.4 °C 15.0 °C 1012.1 hPa Calm   9.3 km/h 30 % 0.0 mm
19:39 35.4 °C 15.0 °C 1012.1 hPa SSW 1.4 km/h 5.0 km/h 30 % 0.0 mm
19:44 35.5 °C 16.0 °C 1012.1 hPa SE 1.4 km/h 6.1 km/h 31 % 0.0 mm
19:49 35.4 °C 16.0 °C 1013.1 hPa South 4.3 km/h 6.1 km/h 31 % 0.0 mm
19:54 35.1 °C 16.0 °C 1013.1 hPa Calm   7.6 km/h 31 % 0.0 mm
19:59 35.0 °C 16.0 °C 1013.1 hPa Calm   7.6 km/h 32 % 0.0 mm
20:05 34.8 °C 16.0 °C 1013.1 hPa Calm   5.0 km/h 32 % 0.0 mm
20:10 34.8 °C 16.0 °C 1013.1 hPa Calm   2.6 km/h 33 % 0.0 mm
20:15 34.7 °C 16.0 °C 1013.1 hPa Calm     33 % 0.0 mm
20:20 34.4 °C 15.0 °C 1013.1 hPa Calm   1.8 km/h 32 % 0.0 mm
20:25 34.1 °C 16.0 °C 1013.1 hPa Calm   5.8 km/h 33 % 0.0 mm
20:30 33.8 °C 16.0 °C 1013.1 hPa Calm   5.8 km/h 34 % 0.0 mm
20:35 33.6 °C 16.0 °C 1013.1 hPa Calm     35 % 0.0 mm
20:40 33.3 °C 16.0 °C 1013.1 hPa Calm     35 % 0.0 mm
20:45 33.1 °C 16.0 °C 1013.1 hPa Calm     36 % 0.0 mm
20:50 32.8 °C 17.0 °C 1013.1 hPa Calm     38 % 0.0 mm
20:55 32.4 °C 17.0 °C 1013.1 hPa Calm     39 % 0.0 mm
21:00 32.0 °C 17.0 °C 1013.1 hPa Calm     40 % 0.0 mm
21:05 31.7 °C 17.0 °C 1013.1 hPa Calm     41 % 0.0 mm
21:10 31.4 °C 17.0 °C 1013.1 hPa Calm     42 % 0.0 mm
21:15 31.0 °C 17.0 °C 1013.1 hPa Calm     43 % 0.0 mm
21:20 30.6 °C 17.0 °C 1013.1 hPa Calm     44 % 0.0 mm
21:21 30.6 °C 17.0 °C 1013.1 hPa Calm     44 % 0.0 mm
21:26 30.3 °C 17.0 °C 1013.1 hPa Calm     45 % 0.0 mm
21:31 30.0 °C 17.0 °C 1013.1 hPa Calm     46 % 0.0 mm
21:36 29.6 °C 17.0 °C 1013.1 hPa Calm     47 % 0.0 mm
21:41 29.2 °C 17.0 °C 1013.1 hPa Calm     48 % 0.0 mm
21:46 28.9 °C 18.0 °C 1013.1 hPa Calm   3.5 km/h 49 % 0.0 mm
21:51 28.6 °C 18.0 °C 1013.1 hPa Calm   3.5 km/h 50 % 0.0 mm
21:56 28.2 °C 17.0 °C 1013.1 hPa Calm   2.1 km/h 50 % 0.0 mm
22:01 28.0 °C 17.0 °C 1013.1 hPa Calm   1.4 km/h 51 % 0.0 mm
22:06 27.8 °C 17.0 °C 1013.1 hPa Calm   1.4 km/h 52 % 0.0 mm
22:11 27.5 °C 17.0 °C 1013.1 hPa Calm     52 % 0.0 mm
22:16 27.3 °C 18.0 °C 1012.1 hPa Calm     54 % 0.0 mm
22:21 27.1 °C 17.0 °C 1012.1 hPa Calm   3.2 km/h 54 % 0.0 mm
22:26 27.1 °C 17.0 °C 1012.1 hPa ESE 5.0 km/h 5.0 km/h 55 % 0.0 mm
22:31 27.0 °C 17.0 °C 1012.1 hPa Calm   5.0 km/h 55 % 0.0 mm
22:36 27.0 °C 17.0 °C 1012.1 hPa Calm   4.0 km/h 55 % 0.0 mm
22:41 26.9 °C 18.0 °C 1012.1 hPa ESE 6.1 km/h 6.4 km/h 56 % 0.0 mm
22:46 26.9 °C 18.0 °C 1013.1 hPa Calm   8.7 km/h 56 % 0.0 mm
22:51 26.9 °C 17.0 °C 1013.1 hPa Calm   8.7 km/h 55 % 0.0 mm
22:57 26.8 °C 17.0 °C 1013.1 hPa Calm   7.6 km/h 56 % 0.0 mm
23:02 26.7 °C 17.0 °C 1014.1 hPa Calm   5.8 km/h 56 % 0.0 mm
23:07 26.6 °C 17.0 °C 1014.1 hPa Calm   5.8 km/h 56 % 0.0 mm
23:12 26.4 °C 17.0 °C 1014.1 hPa Calm   5.8 km/h 56 % 0.0 mm
23:17 26.3 °C 17.0 °C 1012.1 hPa Calm   3.5 km/h 56 % 0.0 mm
23:22 26.1 °C 17.0 °C 1012.1 hPa ESE 2.6 km/h 3.5 km/h 57 % 0.0 mm
23:27 26.0 °C 17.0 °C 1012.1 hPa Calm   3.5 km/h 57 % 0.0 mm
23:32 25.8 °C 17.0 °C 1013.1 hPa Calm   2.6 km/h 58 % 0.0 mm
23:37 25.7 °C 17.0 °C 1013.1 hPa Calm   4.7 km/h 58 % 0.0 mm
23:42 25.7 °C 17.0 °C 1013.1 hPa Calm   4.7 km/h 58 % 0.0 mm
23:47 25.5 °C 18.0 °C 1013.1 hPa Calm   2.6 km/h 60 % 0.0 mm
23:52 25.3 °C 17.0 °C 1013.1 hPa Calm   2.6 km/h 60 % 0.0 mm
23:57 25.2 °C 17.0 °C 1013.1 hPa Calm   1.8 km/h 61 % 0.0 mm
Le Gheer Warneton
Courtoisie de Weather Underground - 2.25 mb

Mise a jour : 18/12/2017 17:33:13
Généré par Cumulus 1.9.4 (1099)